EHI
0 0 0 0 0 0 0 0 0 0 0 0 2 6 10 12 10 6 5 7 7 6 6 5 4 3 2 2 1 0 1 0 0 0 0 0 1 0 0 0 0 0 0 0
0 0 0 0 0 0 0 0 0 0 0 0 1 5 8 9 9 6 5 6 6 5 3 2 1 1 1 1 0 1 3 3 2 2 1 2 2 1 0 0 0 0 0 0
0 0 0 0 0 0 0 0 0 0 0 0 1 3 5 6 7 7 5 5 4 2 1 0 0 0 1 1 2 3 7 8 7 6 5 4 4 2 1 0 0 0 0 0
0 0 0 0 0 0 0 0 0 0 0 0 0 1 2 3 4 5 5 5 2 1 1 0 0 0 2 3 4 7 10 13 13 12 9 6 5 3 2 1 0 0 0 0
0 0 0 0 0 0 0 0 0 0 0 0 0 0 1 1 1 2 3 2 1 0 0 0 0 0 2 4 6 9 13 17 18 14 11 8 5 3 2 1 0 0 0 0
0 0 0 0 0 0 0 0 0 0 0 0 0 0 0 0 0 0 0 0 0 0 0 0 0 1 3 6 8 10 14 18 16 12 9 6 4 2 1 1 0 0 0 0
0 0 0 0 0 0 0 0 0 0 0 0 0 0 0 0 0 0 0 0 0 0 0 0 1 3 6 7 8 10 12 12 10 6 4 2 1 1 0 0 0 0 0 0
0 0 0 0 0 0 0 0 0 0 0 0 0 0 0 0 0 0 0 0 0 0 0 0 1 3 5 5 5 7 7 6 4 1 1 0 0 0 0 0 0 0 0 0
0 0 0 0 0 0 0 0 0 0 0 0 0 0 0 0 0 0 0 0 0 0 0 0 0 2 3 2 1 2 4 3 1 0 0 0 0 0 0 0 0 0 0 0
0 0 0 0 0 0 0 0 0 0 0 0 0 0 0 0 0 0 0 0 0 0 0 0 0 0 1 0 0 0 1 1 0 0 0 0 0 0 0 0 0 0 0 0
0 0 0 0 0 0 0 0 0 0 0 0 0 0 0 0 0 0 0 0 0 0 0 0 0 0 0 0 0 0 0 0 0 0 0 0 0 0 0 0 0 0 0 0
0 0 0 0 0 0 0 0 0 0 0 0 0 0 0 0 0 0 0 0 0 0 0 0 0 0 0 0 0 0 0 0 0 0 0 0 0 0 0 0 0 0 0 0
0 0 0 0 0 0 0 0 0 0 0 0 0 0 0 0 0 0 0 0 0 0 0 0 0 0 0 0 0 0 0 0 0 0 0 0 0 0 0 0 0 0 0 0
0 0 0 0 0 0 0 0 0 0 0 0 0 0 0 0 0 0 0 0 0 0 0 0 0 0 0 0 0 0 0 0 0 0 0 0 0 0 0 0 0 0 0 0
0 0 0 0 0 0 0 0 0 0 0 0 0 0 0 0 0 0 0 0 0 0 0 0 0 0 0 0 0 0 0 0 0 0 0 0 0 0 0 0 0 0 0 0
0 0 0 0 0 0 0 0 0 0 0 0 0 0 0 0 0 0 0 0 0 0 0 0 0 0 0 0 0 0 0 0 0 0 0 0 0 0 0 0 0 0 0 0
0 0 0 0 0 0 0 0 0 0 0 0 0 0 0 0 0 0 0 0 0 0 0 0 0 0 0 0 0 0 0 0 0 0 0 0 0 0 0 0 0 0 0 0
0 0 0 0 0 0 0 0 0 0 0 0 0 0 0 0 0 0 0 0 0 0 0 0 0 0 0 0 0 0 0 0 0 0 0 0 0 0 0 0 0 0 0 0
0 0 0 0 0 0 0 0 0 0 0 0 0 0 0 0 0 0 0 0 0 0 0 0 0 0 0 0 0 0 0 0 0 0 0 0 0 0 0 0 0 0 0 0
0 0 0 0 0 0 0 0 0 0 0 0 0 0 0 0 0 0 0 0 0 0 0 0 0 0 0 0 0 0 0 0 0 0 0 0 0 0 0 0 0 0 0 0
0 0 0 0 0 0 0 0 0 0 0 0 0 0 0 0 0 0 0 0 0 0 0 0 0 0 0 0 0 0 0 0 0 0 0 0 0 0 0 0 0 0 0 0
0 0 0 0 0 0 0 0 0 0 0 0 0 0 0 0 0 0 0 0 0 0 0 0 0 0 0 0 0 0 0 0 0 0 0 0 0 0 0 0 0 0 0 0
0 0 0 0 0 0 0 0 0 0 0 0 0 0 0 0 0 0 0 0 0 0 0 0 0 0 0 0 0 0 0 0 0 0 0 0 0 0 0 0 0 0 0 0
0 0 0 0 0 0 0 0 0 0 0 0 0 0 0 0 0 0 0 0 0 0 0 0 0 0 1 1 0 0 0 0 0 0 0 0 0 0 0 0 0 0 0 0
0 0 0 0 0 0 0 0 0 0 0 0 0 0 0 0 0 0 0 0 0 0 0 0 0 0 1 1 0 0 0 0 0 0 0 0 0 0 0 0 0 0 0 0
0 0 0 0 0 0 0 0 0 0 0 0 0 0 0 0 0 0 0 0 0 0 0 0 0 0 0 1 0 0 0 0 0 0 0 0 0 0 0 0 0 0 0 0
Wind_Speed
6 8 5 4 5 6 6 5 2 3 2 5 5 4 7 7 6 6 6 6 6 6 7 7 7 7 7 7 6 6 5 5 4 2 3 2 2 2 3 3 3 4 5 5
7 5 3 3 2 4 5 4 3 5 2 4 3 4 5 7 7 7 7 7 7 8 8 8 8 8 8 8 7 7 7 6 6 3 2 2 3 3 3 3 2 4 5 5
8 4 1 3 4 4 4 4 1 4 5 5 4 6 8 7 7 8 8 8 9 9 10 10 10 9 9 9 9 8 7 6 6 4 4 3 3 5 4 3 3 4 5 6
5 1 3 5 4 5 1 1 2 5 7 3 4 2 6 8 9 10 11 11 11 11 10 10 10 10 10 10 9 9 8 7 6 6 6 6 6 6 6 5 4 5 5 6
2 2 4 4 2 3 3 1 3 5 5 3 2 4 5 6 8 11 12 13 12 11 11 10 10 10 9 9 8 7 7 7 6 6 5 6 7 5 5 5 5 6 5 5
3 1 3 1 2 2 6 5 6 7 6 2 2 4 3 5 6 9 12 12 11 10 10 10 9 8 7 7 6 6 6 6 5 5 5 5 6 6 7 7 7 6 5 4
4 4 4 4 5 6 7 6 4 4 2 3 2 3 3 5 5 7 10 11 11 10 10 9 9 9 8 7 6 5 5 5 4 4 4 5 5 6 7 7 6 6 6 5
4 3 4 4 4 2 3 6 5 6 5 2 4 1 5 6 6 6 8 9 9 10 9 8 7 7 7 6 6 5 4 4 4 4 4 4 5 6 5 5 7 7 6 6
4 1 4 1 2 4 3 3 5 5 3 2 3 2 5 7 8 9 10 10 10 9 8 7 7 7 6 6 5 5 4 4 4 4 4 5 6 6 7 7 8 7 6 7
4 5 3 5 5 1 5 2 3 5 5 4 1 1 3 8 10 11 11 11 10 9 9 8 8 8 7 7 6 5 5 4 4 5 5 5 5 6 7 8 8 8 9 8
4 6 3 6 6 3 5 4 4 4 5 7 4 2 4 5 8 10 11 10 10 10 10 9 8 8 7 7 6 6 5 5 5 6 5 6 7 7 7 7 8 8 9 9
2 6 5 2 2 2 5 3 4 6 4 4 6 1 7 5 6 7 8 8 8 9 9 9 9 8 7 7 6 6 5 6 6 5 5 6 7 7 8 8 8 8 9 9
3 5 6 6 7 7 5 3 4 5 6 7 8 2 8 6 6 7 7 8 8 9 9 9 9 8 8 7 6 5 5 5 5 5 6 7 7 8 8 8 9 9 9 10
5 6 8 8 4 2 5 5 6 8 9 8 8 8 3 5 7 8 8 8 9 10 10 10 9 8 7 6 6 6 5 5 5 6 6 7 8 8 8 9 9 9 9 10
6 9 8 8 6 7 9 9 8 10 11 12 10 9 7 2 4 6 7 8 9 10 11 10 9 8 8 7 6 6 6 5 5 6 7 7 7 8 8 9 9 9 10 10
5 9 10 10 9 9 11 11 11 10 9 9 10 9 3 1 3 5 7 9 10 11 11 10 10 9 8 8 7 6 6 5 5 6 7 7 8 8 9 9 9 9 10 10
6 7 10 12 9 9 12 8 7 6 6 7 8 5 2 2 4 6 8 9 10 10 10 10 10 9 8 8 7 6 6 5 6 7 7 7 8 9 9 10 10 10 10 10
7 8 8 10 8 11 5 1 4 6 7 6 6 4 2 2 2 4 6 8 9 9 9 9 9 9 8 8 7 6 5 6 6 7 7 8 8 9 9 9 10 10 9 9
6 7 7 8 10 10 6 4 4 6 8 5 4 3 2 2 4 8 10 10 9 9 9 8 9 9 8 7 7 6 6 6 7 7 7 8 8 9 9 10 10 9 9 10
5 7 8 7 9 9 2 5 1 5 7 1 2 4 3 5 7 4 6 10 11 10 9 9 9 8 8 8 7 7 7 7 7 7 7 7 8 9 10 10 10 9 9 10
7 7 8 9 8 7 4 4 4 6 5 7 5 6 5 7 9 4 3 7 9 10 10 10 9 9 8 8 8 8 7 7 7 6 7 7 8 9 10 10 9 10 10 10
8 6 6 6 8 3 6 0 4 8 10 9 9 8 8 9 10 7 6 7 8 9 11 11 10 9 8 9 9 8 8 7 6 6 7 8 8 9 8 9 9 10 10 10
7 6 4 4 3 5 5 5 7 9 10 11 11 11 10 10 10 9 9 8 9 10 10 10 11 10 9 9 9 9 8 7 6 7 8 8 9 8 9 9 10 9 9 9
4 1 5 6 5 3 5 7 8 9 10 11 11 10 9 9 9 8 7 7 8 8 9 9 10 10 9 10 10 10 8 7 7 8 8 8 8 9 8 7 8 8 8 8
4 2 6 8 4 3 5 11 12 11 10 10 9 8 8 7 7 7 6 6 6 6 6 7 9 9 9 9 9 9 8 8 8 9 8 8 9 8 7 8 8 9 9 8
3 4 6 4 6 6 7 10 10 10 11 11 11 11 10 9 8 7 6 5 4 4 4 5 7 8 8 8 8 8 8 9 9 9 9 8 7 6 7 8 8 9 11 10
Wind_Direction
206 243 262 309 296 315 309 288 259 116 145 231 223 180 163 174 193 184 176 166 164 170 161 161 168 172 173 177 181 186 191 177 199 213 245 261 288 309 320 328 3 331 332 332
229 244 332 324 262 249 253 252 177 136 160 240 200 175 167 181 191 190 182 175 174 176 173 178 186 189 197 199 203 205 209 206 219 217 257 285 309 302 318 324 331 319 327 318
280 350 28 252 234 237 242 277 218 167 168 197 213 190 179 181 188 187 189 187 190 190 189 192 199 204 209 213 215 219 220 220 229 232 240 244 245 259 272 303 306 327 318 310
274 286 247 259 262 275 281 32 211 186 209 166 245 253 159 179 188 194 195 194 198 199 202 204 206 211 218 220 219 220 223 226 226 231 251 274 290 302 317 309 318 313 297 300
295 279 260 267 320 293 47 119 190 207 231 220 217 290 122 171 189 193 194 195 199 202 208 213 216 219 224 223 221 218 219 225 227 238 248 260 277 295 300 306 299 293 294 289
287 249 284 8 72 135 144 170 181 213 230 233 39 302 126 152 176 178 185 192 198 205 213 217 219 218 219 216 215 215 212 219 224 233 246 262 286 294 300 298 302 295 296 294
204 181 161 181 168 162 216 253 241 223 222 74 93 277 79 122 162 176 180 186 193 200 209 212 213 211 209 210 209 206 204 213 217 232 251 263 276 279 273 283 295 297 300 302
267 190 157 200 267 251 245 294 324 330 350 58 163 289 105 140 161 178 185 183 187 198 203 203 201 198 199 197 194 196 200 214 226 241 255 266 268 272 284 295 301 297 297 307
308 351 116 145 259 276 235 274 346 295 287 293 86 117 152 166 183 187 186 188 193 195 192 190 184 183 179 179 181 189 197 219 237 254 258 261 267 281 294 294 276 283 293 294
304 289 162 149 174 117 314 293 251 296 325 325 93 158 127 176 188 189 192 194 194 189 188 183 177 173 170 172 174 188 204 225 247 256 263 270 272 273 279 285 298 296 293 290
280 281 235 199 232 217 184 207 265 290 315 310 327 58 101 181 189 193 196 198 194 192 186 178 174 171 174 178 185 198 210 229 246 261 270 280 281 283 281 279 283 288 290 291
260 289 290 235 113 294 259 259 247 283 294 280 297 12 130 183 194 204 205 193 191 189 182 174 173 176 185 194 201 209 225 240 252 265 271 275 280 281 282 284 288 288 287 286
199 262 265 189 177 191 213 212 253 276 277 275 283 334 133 174 203 209 216 197 185 185 181 178 180 188 195 203 213 225 237 253 262 266 269 275 279 283 285 289 290 290 288 287
248 262 284 301 324 278 247 229 231 258 272 280 278 294 247 212 214 207 202 199 190 186 184 188 189 195 201 207 215 231 248 260 266 272 275 279 283 289 292 291 290 289 289 289
246 256 258 273 279 272 278 280 264 254 274 284 296 297 301 286 225 207 193 189 191 189 191 196 199 198 202 207 216 228 244 253 263 270 276 282 285 288 289 291 291 291 290 288
237 270 269 262 257 258 268 273 269 261 265 270 279 285 328 69 191 193 194 195 200 201 201 202 204 204 205 209 218 226 237 249 254 265 277 287 290 288 291 293 292 292 290 288
236 250 259 266 261 258 261 261 262 254 254 271 286 319 59 203 204 209 206 208 213 211 208 207 206 206 207 209 214 225 236 249 257 267 277 284 286 287 292 296 296 295 293 289
243 248 255 264 262 259 279 34 280 277 275 269 274 282 259 258 233 228 222 220 220 218 213 209 207 203 203 205 208 220 234 243 258 269 277 284 286 288 293 295 294 294 291 290
235 235 253 262 259 257 255 209 234 261 276 273 260 260 234 183 228 224 211 219 225 222 215 211 210 204 200 204 206 213 234 247 259 269 277 283 288 291 292 293 295 295 292 289
189 224 247 245 265 270 304 83 86 263 262 172 228 267 253 202 259 277 175 202 216 218 211 205 202 201 196 201 201 217 237 249 262 273 280 285 285 287 290 292 293 292 289 286
193 203 234 247 255 263 46 83 207 251 357 12 321 296 269 244 269 310 200 200 211 213 209 202 202 205 203 196 197 217 239 253 267 276 278 277 279 282 283 286 286 286 285 288
250 237 226 242 253 275 82 23 295 344 339 326 315 303 286 271 271 267 246 224 216 213 208 203 204 208 202 196 199 218 235 250 260 265 268 272 276 282 288 285 283 282 283 282
248 290 295 278 301 34 14 339 340 335 320 318 314 309 296 279 272 263 251 239 229 221 214 209 208 209 202 198 205 223 233 240 247 254 261 268 275 279 281 280 281 279 275 277
202 125 272 273 276 342 4 6 0 346 330 321 317 311 305 291 285 280 265 251 241 232 223 214 212 213 207 202 207 220 229 233 241 250 259 263 267 271 273 276 276 279 284 285
338 253 264 262 298 321 48 18 358 352 351 349 348 346 338 324 316 311 299 286 272 254 236 224 218 219 216 209 212 218 219 224 239 248 254 260 266 272 280 275 275 281 285 296
343 307 289 327 21 348 11 12 8 15 20 19 18 22 21 13 1 355 350 342 319 293 262 241 236 232 224 215 216 218 216 217 230 244 249 257 264 270 274 279 277 243 240 253